Regional Weather Roundup
Issued by NWS

Home | Current Version | Previous Version | Text Only | Print | Product List | Glossary On
Versions: 1 2 3 4 5 6 7 8 9 10 11 12 13 14 15 16 17 18 19 20 21 22 23 24 25 26 27 28 29 30 31 32 33 34 35 36 37 38 39 40 41 42 43 44 45 46 47 48 49 50
000
ASUS42 KKEY 202110
RWRKEY

FLORIDA REGIONAL WEATHER ROUNDUP FOR THE FLORIDA KEYS
NATIONAL WEATHER SERVICE KEY WEST FLORIDA
500 PM EDT SAT SEP 20 2014

...SOUTH FLORIDA AND THE KEYS...

CITY           SKY/WX    TMP DP  RH WIND       PRES   REMARKS
FORT MYERS     CLOUDY    76  71  85 W8        29.90S
SW REGIONAL AP CLOUDY    79  58  48 W6        29.91S
NAPLES         CLOUDY    79  74  84 W3        29.90F
MIAMI          CLOUDY    77  72  84 N7        29.92R
WEST KENDALL   LGT RAIN  81  74  79 NW10G28   29.91R
HOMESTEAD      CLOUDY    82  73  74 W6        29.90R
MARATHON       MOSUNNY   88  76  67 W6        29.89R HX  99
BOCA CHICA NAS PTSUNNY   89  74  60 W9        29.90R HX  98
KEY WEST INTL  CLOUDY    88  75  65 VRB7      29.90R HX  97

...INTERNATIONAL WEATHER...

CITY           SKY/WX    TMP DP  RH WIND       PRES   REMARKS
NASSAU BAHAMAS MOSUNNY   86  79  79 S7        29.90R HX  99
CANCUN MEXICO  CLOUDY    81  75  83 NW7       29.86F
COZUMEL MEXICO PTSUNNY   79  77  94 CALM      29.86F

ADJACENT COASTAL WATERS...

STATION/POSITION TIME  SKY/WX   TEMP    WIND        PRES    WAVE
                                AIR SEA DIR/SP/G            HT/PER
                 (UTC)          (F)     (DEG/KT/KT) (MB)    (FT/S)
PULASKI SHOAL LI 2100            75     320/ 11/ 12 1013.2R
SAND KEY         2037            84     270/  8/  9 1012.4R
SOMBRERO KEY     2100            84     270/ 10/ 10 1013.0R
LONG KEY         2000            84 85  280/  6/  7 1012.8F
MOLASSES REEF    2100            84 86  240/ 11/ 12 1012.2R
FOWEY ROCKS      2100            79 85  360/ 12/ 14 1012.9R
Buoy 42080       NOT AVBL

$$


USA.gov is the U.S. government's official web portal to all federal, state and local government web resources and services.